Location: Unspecified
(0.0000°N, 0.0000°E)
Time: 16:24:50
(UTC+00:00)

Vanguard 1 - Visible Passes

Search period start: 19 October 2020 00:00
Search period end: 29 October 2020 00:00
Orbit: 650 x 3832 km, 34.2° (Epoch: 18 October)

Date Brightness Start Highest point End Pass type
(mag) Time Alt. Az. Time Alt. Az. Time Alt. Az.
22 Oct 12.6 19:29:27 10° N 19:33:19 12° N 19:34:08 12° NNE visible
23 Oct 12.5 19:49:14 10° NNW 19:54:03 16° N 19:54:03 16° N visible
24 Oct 12.5 20:09:30 10° NNW 20:14:00 19° N 20:14:00 19° N visible
25 Oct 12.7 18:06:09 10° NNW 18:13:17 14° N 18:18:49 10° NE visible
25 Oct 12.5 20:30:03 10° NW 20:34:01 20° NNW 20:34:01 20° NNW visible
26 Oct 12.4 18:27:01 10° NNW 18:35:47 18° NNE 18:41:20 12° NE visible
26 Oct 12.6 20:50:52 10° NW 20:54:05 20° NW 20:54:05 20° NW visible
27 Oct 12.1 18:47:47 10° NNW 18:58:01 23° NNE 19:01:28 19° NE visible
27 Oct 12.8 21:11:57 10° NW 21:14:13 17° NW 21:14:13 17° NW visible
28 Oct 11.7 19:08:34 10° NNW 19:19:59 31° NNE 19:21:39 29° NE visible
28 Oct 13.0 21:33:23 10° WNW 21:34:24 13° WNW 21:34:24 13° WNW visible
